Location: Newark
(42.4197°N, 2.8753°E)
Time: 09:28:51
(UTC+00:00)

Hubble Space Telescope - Visible Passes

Search period start: 22 November 2019 00:00
Search period end: 02 December 2019 00:00
Orbit: 536 x 540 km, 28.5° (Epoch: 21 November)

Date Brightness Start Highest point End Pass type
(mag) Time Alt. Az. Time Alt. Az. Time Alt. Az.
22 Nov 3.4 17:35:04 10° S 17:35:44 10° S 17:36:23 10° SSE visible
23 Nov 3.4 17:23:51 10° S 17:25:00 11° S 17:26:09 10° SSE visible
24 Nov 3.4 17:12:53 10° SSW 17:14:15 11° S 17:15:37 10° SSE visible
25 Nov 3.4 17:02:05 10° SSW 17:03:31 12° S 17:04:57 10° SSE visible
26 Nov 3.5 16:51:23 10° SSW 16:52:46 11° S 16:54:10 10° SSE visible
